Location: Ch�teau-Arnoux
(44.0814°N, 6.0027°E)
Time: 08:02:42
(UTC+00:00)

Meteor 2-20 - Pass Details

Date: 15 November 2019
Orbit: 940 x 958 km, 82.5° (Epoch: 07 December)

Event Time Altitude Azimuth Distance (km) Brightness Sun altitude
Rises 04:15:05 0° 352° (N) 3,649 7.4 -24.3°
Reaches altitude 10° 04:17:36 10° 353° (N) 2,699 6.7 -23.8°
Maximum altitude 04:23:48 81° 81° (E) 973 4.5 -22.7°
Drops below altitude 10° 04:29:56 10° 169° (S) 2,676 7.0 -21.6°
Sets 04:32:25 0° 171° (S) 3,616 7.7 -21.2°
